Weather History for Pecos, TX

Change the Weather History Date:

Saturday, May 25, 2013

  Actual Average Record
Temperature  
Mean Temperature 78 °F -  
Max Temperature 93 °F 95 °F 107 °F (2006)
Min Temperature 62 °F 59 °F 40 °F (1947)
Cooling Degree Days 13    
Growing Degree Days 28 (Base 50)    
Moisture  
Dew Point 59 °F    
Average Humidity 62    
Maximum Humidity 84    
Minimum Humidity 30    
Precipitation  
Precipitation 0.17 in - - ()
Sea Level Pressure  
Sea Level Pressure 30.02 in    
Wind  
Wind Speed 14 mph (East)    
Max Wind Speed 31 mph    
Max Gust Speed 46 mph    
Visibility 10 miles    
Events Rain , Thunderstorm    
Averages and records for this station are not official NWS values.
T = Trace of Precipitation, MM = Missing Value Source: NWS Daily Summary

Daily Weather History Graph

Daily Weather History Graph

Search for Another Location

Airport:

Trip Planner

Search our weather history database for the weather conditions in past years. The results will help you decide how hot, cold, wet, or windy it might be!

Date:

Astronomy

May. 25, 2013 Rise Set
Actual Time 6:52 AM CDT 8:49 PM CDT
Civil Twilight 6:25 AM CDT 9:17 PM CDT
Nautical Twilight 5:52 AM CDT 9:50 PM CDT
Astronomical Twilight 5:17 AM CDT 10:25 PM CDT
Moon 9:41 PM CDT (5/25) 7:20 AM CDT (5/25)
Length of Visible Light 14h 51m
Length of Day
13h 57m
Full, 100% of the Moon is Illuminated
May 25
Full
May 31
Last Quarter
Jun 8
New
Jun 16
First Quarter
Jun 23
Full

Hourly Weather History & Observations

Time (CDT) Temp. Heat Index Dew Point Humidity Pressure Visibility Wind Dir Wind Speed Gust Speed Precip Events Conditions
12:35 AM 72.3 °F - 58.5 °F 62% 30.05 in 10.0 mi East 16.1 mph 23.0 mph N/A   Clear
12:55 AM 71.8 °F - 57.0 °F 60% 30.05 in 10.0 mi ESE 17.3 mph - N/A   Clear
1:15 AM 71.1 °F - 58.1 °F 63% 30.05 in 10.0 mi ESE 19.6 mph 25.3 mph N/A   Clear
1:35 AM 70.3 °F - 59.2 °F 68% 30.06 in 10.0 mi ESE 16.1 mph - N/A   Clear
1:55 AM 69.8 °F - 59.9 °F 71% 30.04 in 10.0 mi ESE 19.6 mph 23.0 mph N/A   Clear
2:15 AM 69.3 °F - 59.7 °F 72% 30.04 in 10.0 mi ESE 13.8 mph 24.2 mph N/A   Clear
2:35 AM 68.9 °F - 59.9 °F 73% 30.05 in 10.0 mi ESE 13.8 mph - N/A   Clear
2:55 AM 68.4 °F - 59.9 °F 74% 30.05 in 10.0 mi East 13.8 mph - N/A   Clear
3:15 AM 68.0 °F - 59.4 °F 74% 30.05 in 10.0 mi East 13.8 mph - N/A   Clear
3:35 AM 67.5 °F - 59.2 °F 75% 30.05 in 10.0 mi East 12.7 mph - N/A   Clear
3:55 AM 67.3 °F - 59.0 °F 75% 30.05 in 10.0 mi East 15.0 mph - N/A   Clear
4:15 AM 67.1 °F - 59.0 °F 75% 30.05 in 10.0 mi East 13.8 mph - N/A   Clear
4:35 AM 66.6 °F - 59.0 °F 77% 30.04 in 10.0 mi East 16.1 mph 21.9 mph N/A   Clear
4:55 AM 66.4 °F - 59.0 °F 77% 30.03 in 10.0 mi East 17.3 mph 21.9 mph N/A   Clear
5:15 AM 66.2 °F - 59.0 °F 78% 30.03 in 10.0 mi East 13.8 mph 18.4 mph N/A   Clear
5:35 AM 66.2 °F - 59.2 °F 78% 30.02 in 10.0 mi East 13.8 mph - N/A   Clear
5:55 AM 66.2 °F - 59.4 °F 79% 30.03 in 10.0 mi East 13.8 mph - N/A   Clear
6:15 AM 65.8 °F - 59.9 °F 81% 30.04 in 10.0 mi East 10.4 mph - N/A   Clear
6:35 AM 65.3 °F - 59.9 °F 83% 30.04 in 10.0 mi East 5.8 mph - N/A   Clear
6:55 AM 64.8 °F - 59.5 °F 83% 30.05 in 10.0 mi East 3.5 mph - N/A   Clear
7:15 AM 64.4 °F - 59.2 °F 83% 30.05 in 7.0 mi Calm Calm - N/A   Clear
7:35 AM 64.0 °F - 59.2 °F 84% 30.05 in 7.0 mi NE 5.8 mph - N/A   Clear
7:55 AM 65.3 °F - 59.9 °F 83% 30.05 in 10.0 mi ENE 5.8 mph - N/A   Clear
8:15 AM 66.2 °F - 60.3 °F 81% 30.05 in 10.0 mi ENE 5.8 mph - N/A   Clear
9:15 AM 69.8 °F - 60.8 °F 73% 30.06 in 10.0 mi ESE 9.2 mph - N/A   Clear
9:55 AM 72.7 °F - 61.2 °F 67% 30.05 in 10.0 mi ESE 5.8 mph - N/A   Clear
10:15 AM 72.9 °F - 60.8 °F 66% 30.06 in 10.0 mi SE 3.5 mph - N/A   Clear
10:35 AM 74.5 °F - 60.8 °F 62% 30.05 in 10.0 mi Calm Calm - N/A   Clear
10:55 AM 76.3 °F - 60.3 °F 57% 30.05 in 10.0 mi ENE 6.9 mph - N/A   Clear
12:15 PM 82.8 °F 82.7 °F 59.0 °F 44% 30.04 in 10.0 mi East 11.5 mph 18.4 mph N/A   Clear
1:35 PM 86.9 °F 85.9 °F 57.4 °F 37% 30.02 in 10.0 mi East 11.5 mph - N/A   Clear
2:35 PM 90.0 °F 88.6 °F 57.4 °F 33% 29.99 in 10.0 mi ESE 11.5 mph 23.0 mph N/A   Clear
3:15 PM 91.9 °F 90.3 °F 56.5 °F 30% 29.98 in 10.0 mi ESE 5.8 mph 17.3 mph N/A   Clear
4:15 PM 92.5 °F 91.0 °F 57.0 °F 30% 29.96 in 10.0 mi East 17.3 mph 23.0 mph N/A   Clear
5:15 PM 91.6 °F 90.4 °F 57.6 °F 32% 29.93 in 10.0 mi ESE 16.1 mph 19.6 mph N/A   Clear
6:15 PM 90.3 °F 89.0 °F 57.2 °F 33% 29.91 in 10.0 mi ESE 17.3 mph 21.9 mph N/A   Clear
6:35 PM 87.8 °F 86.7 °F 57.6 °F 36% 29.91 in 10.0 mi East 17.3 mph - N/A   Clear
7:35 PM 85.3 °F 84.6 °F 58.3 °F 40% 29.90 in 10.0 mi East 21.9 mph - N/A   Clear
7:55 PM 84.4 °F 84.0 °F 59.0 °F 42% 29.91 in 10.0 mi ESE 19.6 mph - N/A   Clear
8:15 PM 83.5 °F 83.2 °F 58.6 °F 43% 29.91 in 10.0 mi ESE 18.4 mph - N/A   Clear
8:35 PM 82.9 °F 82.8 °F 58.8 °F 44% 29.91 in 10.0 mi ESE 19.6 mph - N/A   Clear
8:55 PM 82.4 °F 82.5 °F 59.0 °F 45% 29.92 in 10.0 mi ESE 17.3 mph 23.0 mph N/A   Clear
9:15 PM 81.7 °F 81.9 °F 59.0 °F 46% 29.92 in 10.0 mi East 15.0 mph 20.7 mph N/A Thunderstorm Clear
10:35 PM 74.3 °F - 58.5 °F 58% 30.09 in 7.0 mi West 31.1 mph 46.0 mph N/A Rain , Thunderstorm Thunderstorms and Rain
11:35 PM 62.6 °F - 57.2 °F 82% 30.13 in 10.0 mi East 11.5 mph - 0.17 in Rain , Thunderstorm Thunderstorms and Rain